CCA1397 ZBAA-ZGSZ

Flight info

Callsign CCA1397
Flight time 3h 6m
Altitude 38100
Route RUSDO W45 IPLEV B458 DADGA W37 OMBEB R473 NOLON W90 POU W7 SAREX
Aircraft B77W/H-SDE1E2E3FGHIJ2J3J4J5M1RWXY/LB1D1

Departure

Time 2026-04-20 14:22
Airport Beijing Capital International Airport (ZBAA)

Arrival

Time 2026-04-20 17:28
Airport Shenzhen Bao'an International Airport (ZGSZ)
Time Latitude Longitude Altitude Speed Heading
2026-04-20 13:35 40.05773 116.61067 130 ft 0 kts 263°
2026-04-20 13:59 40.05774 116.61078 131 ft 2 kts 264°
2026-04-20 14:00 40.05776 116.61098 130 ft 2 kts 264°
2026-04-20 14:00 40.05777 116.61118 131 ft 2 kts 264°
2026-04-20 14:00 40.05777 116.61137 131 ft 2 kts 290°
2026-04-20 14:00 40.05770 116.61153 131 ft 2 kts 316°
2026-04-20 14:01 40.05758 116.61164 131 ft 2 kts 341°
2026-04-20 14:01 40.05750 116.61167 131 ft 1 kts 355°
2026-04-20 14:01 40.05747 116.61168 130 ft 0 kts 354°
2026-04-20 14:06 40.05762 116.61165 130 ft 6 kts 353°
2026-04-20 14:07 40.05837 116.61153 130 ft 14 kts 352°
2026-04-20 14:07 40.05962 116.61131 130 ft 20 kts 353°
2026-04-20 14:07 40.06102 116.61110 130 ft 19 kts 353°
2026-04-20 14:07 40.06217 116.61091 130 ft 12 kts 353°
2026-04-20 14:08 40.06287 116.61080 130 ft 9 kts 353°
2026-04-20 14:08 40.06335 116.61065 130 ft 3 kts 303°
2026-04-20 14:08 40.06334 116.61021 130 ft 6 kts 265°
2026-04-20 14:08 40.06330 116.60973 130 ft 1 kts 263°
2026-04-20 14:09 40.06328 116.60946 130 ft 4 kts 262°
2026-04-20 14:09 40.06321 116.60885 131 ft 8 kts 262°
2026-04-20 14:09 40.06315 116.60815 130 ft 8 kts 263°
2026-04-20 14:09 40.06306 116.60725 130 ft 11 kts 263°
2026-04-20 14:10 40.06295 116.60595 130 ft 17 kts 263°
2026-04-20 14:10 40.06278 116.60423 131 ft 17 kts 263°
2026-04-20 14:10 40.06282 116.60271 130 ft 16 kts 310°
2026-04-20 14:10 40.06385 116.60232 130 ft 15 kts 354°
2026-04-20 14:11 40.06492 116.60217 131 ft 14 kts 353°
2026-04-20 14:11 40.06593 116.60201 130 ft 14 kts 353°
2026-04-20 14:11 40.06694 116.60184 130 ft 15 kts 354°
2026-04-20 14:11 40.06814 116.60166 130 ft 19 kts 354°
2026-04-20 14:12 40.06963 116.60143 130 ft 23 kts 353°
2026-04-20 14:12 40.07138 116.60114 130 ft 26 kts 353°
2026-04-20 14:12 40.07333 116.60084 130 ft 27 kts 353°
2026-04-20 14:12 40.07522 116.60053 131 ft 26 kts 353°
2026-04-20 14:13 40.07698 116.60027 130 ft 25 kts 353°
2026-04-20 14:13 40.07869 116.60000 130 ft 23 kts 353°
2026-04-20 14:13 40.08029 116.59975 131 ft 22 kts 353°
2026-04-20 14:13 40.08180 116.59951 131 ft 21 kts 353°
2026-04-20 14:14 40.08323 116.59928 130 ft 20 kts 353°
2026-04-20 14:14 40.08460 116.59907 131 ft 20 kts 354°
2026-04-20 14:14 40.08615 116.59884 130 ft 23 kts 353°
2026-04-20 14:14 40.08788 116.59857 131 ft 25 kts 353°
2026-04-20 14:15 40.08946 116.59832 131 ft 15 kts 354°
2026-04-20 14:15 40.08991 116.59798 131 ft 6 kts 277°
2026-04-20 14:15 40.08987 116.59735 131 ft 7 kts 264°
2026-04-20 14:15 40.08984 116.59690 131 ft 2 kts 264°
2026-04-20 14:16 40.08981 116.59655 130 ft 5 kts 264°
2026-04-20 14:16 40.08971 116.59583 131 ft 10 kts 246°
2026-04-20 14:16 40.08909 116.59502 131 ft 13 kts 202°
2026-04-20 14:16 40.08848 116.59497 131 ft 0 kts 173°
2026-04-20 14:21 40.08845 116.59498 131 ft 4 kts 173°
2026-04-20 14:21 40.08585 116.59537 131 ft 81 kts 173°
2026-04-20 14:22 40.07744 116.59669 155 ft 158 kts 177°
2026-04-20 14:22 40.06558 116.59862 958 ft 173 kts 175°
2026-04-20 14:22 40.05418 116.60040 2144 ft 166 kts 176°
2026-04-20 14:22 40.04306 116.60214 2931 ft 169 kts 176°
2026-04-20 14:23 40.03130 116.60398 3630 ft 178 kts 176°
2026-04-20 14:23 40.01853 116.60591 4239 ft 194 kts 176°
2026-04-20 14:23 40.00456 116.60807 4921 ft 210 kts 176°
2026-04-20 14:23 39.98952 116.61041 5576 ft 228 kts 176°
2026-04-20 14:24 39.97306 116.61299 6195 ft 249 kts 176°
2026-04-20 14:24 39.95533 116.61574 6818 ft 270 kts 176°
2026-04-20 14:24 39.93584 116.61871 7529 ft 288 kts 176°
2026-04-20 14:24 39.91582 116.62185 8403 ft 298 kts 176°
2026-04-20 14:25 39.89502 116.62515 8836 ft 303 kts 175°
2026-04-20 14:25 39.87380 116.62846 8899 ft 304 kts 176°
2026-04-20 14:25 39.85204 116.63185 9367 ft 322 kts 175°
2026-04-20 14:25 39.83040 116.63524 10649 ft 317 kts 176°
2026-04-20 14:26 39.80788 116.63866 11399 ft 332 kts 176°
2026-04-20 14:26 39.78445 116.64024 12036 ft 347 kts 185°
2026-04-20 14:26 39.75979 116.63657 12690 ft 361 kts 195°
2026-04-20 14:26 39.73549 116.62726 13390 ft 373 kts 206°
2026-04-20 14:27 39.71184 116.61179 14142 ft 383 kts 217°
2026-04-20 14:27 39.69052 116.59068 14970 ft 391 kts 227°
2026-04-20 14:27 39.67249 116.56446 16015 ft 390 kts 238°
2026-04-20 14:27 39.65871 116.53464 17085 ft 387 kts 249°
2026-04-20 14:28 39.64930 116.50212 18035 ft 387 kts 259°
2026-04-20 14:28 39.64462 116.46821 18941 ft 388 kts 268°
2026-04-20 14:28 39.64263 116.43310 19604 ft 392 kts 270°
2026-04-20 14:28 39.64278 116.39784 19896 ft 399 kts 278°
2026-04-20 14:29 39.64687 116.36181 20878 ft 400 kts 282°
2026-04-20 14:29 39.65130 116.32731 22120 ft 393 kts 281°
2026-04-20 14:29 39.65577 116.29253 23154 ft 391 kts 282°
2026-04-20 14:29 39.66027 116.25751 23955 ft 395 kts 281°
2026-04-20 14:30 39.66481 116.22207 24773 ft 398 kts 281°
2026-04-20 14:30 39.66933 116.18668 25638 ft 400 kts 281°
2026-04-20 14:30 39.67388 116.15092 26492 ft 401 kts 281°
2026-04-20 14:30 39.67843 116.11515 27338 ft 402 kts 282°
2026-04-20 14:31 39.68293 116.07983 28213 ft 401 kts 282°
2026-04-20 14:31 39.68746 116.04394 29102 ft 400 kts 281°
2026-04-20 14:31 39.69185 116.00861 30056 ft 398 kts 281°
2026-04-20 14:31 39.69624 115.97382 31262 ft 388 kts 281°
2026-04-20 14:32 39.70039 115.94027 32500 ft 375 kts 281°
2026-04-20 14:32 39.70446 115.90764 33570 ft 365 kts 281°
2026-04-20 14:32 39.70844 115.87569 34529 ft 357 kts 281°
2026-04-20 14:32 39.71234 115.84435 35446 ft 351 kts 281°
2026-04-20 14:33 39.71620 115.81342 36141 ft 350 kts 281°
2026-04-20 14:33 39.72015 115.78162 36733 ft 351 kts 280°
2026-04-20 14:33 39.72408 115.74993 37324 ft 352 kts 280°
2026-04-20 14:33 39.72799 115.71832 37775 ft 350 kts 280°
2026-04-20 14:34 39.73182 115.68726 38129 ft 351 kts 280°
2026-04-20 14:34 39.73541 115.65813 38228 ft 354 kts 280°
2026-04-20 14:34 39.74311 115.59532 38192 ft 351 kts 280°
2026-04-20 14:35 39.75071 115.53291 38097 ft 350 kts 279°
2026-04-20 14:35 39.75206 115.46940 37931 ft 353 kts 269°
2026-04-20 14:36 39.74204 115.40646 37746 ft 361 kts 259°
2026-04-20 14:36 39.72123 115.34646 37593 ft 368 kts 252°
2026-04-20 14:37 39.69881 115.28996 37536 ft 369 kts 252°
2026-04-20 14:37 39.67530 115.23083 37559 ft 367 kts 252°
2026-04-20 14:38 39.66362 115.20149 37714 ft 367 kts 252°
2026-04-20 14:38 39.65188 115.17198 37880 ft 368 kts 252°
2026-04-20 14:38 39.64023 115.14275 38043 ft 368 kts 252°
2026-04-20 14:38 39.62834 115.11292 38209 ft 369 kts 251°
2026-04-20 14:39 39.60464 115.05361 38231 ft 367 kts 251°
2026-04-20 14:39 39.58125 114.99522 38147 ft 364 kts 251°
2026-04-20 14:40 39.55801 114.93722 38085 ft 364 kts 251°
2026-04-20 14:40 39.53448 114.87867 38032 ft 364 kts 251°
2026-04-20 14:41 39.51125 114.82095 37998 ft 363 kts 251°
2026-04-20 14:41 39.48764 114.76239 37942 ft 364 kts 251°
2026-04-20 14:42 39.47598 114.73350 37779 ft 365 kts 251°
2026-04-20 14:42 39.46422 114.70444 37580 ft 364 kts 251°
2026-04-20 14:42 39.45253 114.67557 37373 ft 361 kts 251°
2026-04-20 14:42 39.44090 114.64687 37147 ft 359 kts 251°
2026-04-20 14:43 39.41774 114.58972 37055 ft 362 kts 251°
2026-04-20 14:43 39.39423 114.53187 37049 ft 361 kts 251°
2026-04-20 14:44 39.36921 114.47533 37071 ft 370 kts 245°
2026-04-20 14:44 39.33392 114.42473 37135 ft 389 kts 234°
2026-04-20 14:45 39.31201 114.40303 37160 ft 401 kts 227°
2026-04-20 14:45 39.28757 114.38464 37182 ft 413 kts 221°
2026-04-20 14:45 39.26002 114.36977 37200 ft 427 kts 214°
2026-04-20 14:45 39.23111 114.35980 37214 ft 443 kts 206°
2026-04-20 14:46 39.19988 114.35478 37232 ft 461 kts 198°
2026-04-20 14:46 39.16719 114.35567 37279 ft 479 kts 189°
2026-04-20 14:46 39.13334 114.36327 37383 ft 499 kts 179°
2026-04-20 14:46 39.09942 114.37611 37503 ft 505 kts 177°
2026-04-20 14:47 39.04129 114.39721 37648 ft 500 kts 179°
2026-04-20 14:48 38.94042 114.42829 37872 ft 494 kts 181°
2026-04-20 14:48 38.87317 114.44701 38045 ft 492 kts 182°
2026-04-20 14:49 38.80631 114.46481 38171 ft 489 kts 182°
2026-04-20 14:49 38.73948 114.48221 38205 ft 488 kts 182°
2026-04-20 14:50 38.67308 114.49932 38194 ft 487 kts 182°
2026-04-20 14:50 38.60685 114.51623 38196 ft 487 kts 182°
2026-04-20 14:51 38.54021 114.53323 38190 ft 486 kts 182°
2026-04-20 14:51 38.47367 114.55022 38192 ft 485 kts 182°
2026-04-20 14:52 38.40760 114.56602 38198 ft 482 kts 184°
2026-04-20 14:52 38.34187 114.58062 38199 ft 482 kts 184°
2026-04-20 14:53 38.27571 114.59536 38199 ft 481 kts 184°
2026-04-20 14:53 38.20991 114.61006 38199 ft 480 kts 184°
2026-04-20 14:54 38.14352 114.62485 38199 ft 480 kts 184°
2026-04-20 14:54 38.07808 114.63940 38199 ft 480 kts 183°
2026-04-20 14:55 38.01189 114.65412 38200 ft 480 kts 183°
2026-04-20 14:55 37.94630 114.66868 38201 ft 480 kts 183°
2026-04-20 14:56 37.88023 114.68333 38199 ft 479 kts 183°
2026-04-20 14:56 37.81478 114.69782 38200 ft 478 kts 183°
2026-04-20 14:57 37.74920 114.71228 38200 ft 477 kts 183°
2026-04-20 14:57 37.68420 114.72662 38200 ft 476 kts 183°
2026-04-20 14:58 37.61880 114.74101 38199 ft 476 kts 183°
2026-04-20 14:58 37.55350 114.75536 38199 ft 476 kts 183°
2026-04-20 14:59 37.48838 114.76964 38198 ft 476 kts 183°
2026-04-20 14:59 37.42287 114.78389 38199 ft 476 kts 182°
2026-04-20 15:00 37.35754 114.79808 38200 ft 476 kts 182°
2026-04-20 15:00 37.29231 114.81222 38201 ft 476 kts 182°
2026-04-20 15:01 37.22727 114.82705 38202 ft 477 kts 181°
2026-04-20 15:01 37.16206 114.84232 38203 ft 476 kts 181°
2026-04-20 15:02 37.09674 114.85753 38204 ft 475 kts 181°
2026-04-20 15:02 37.03151 114.87269 38206 ft 474 kts 181°
2026-04-20 15:03 36.96672 114.88769 38207 ft 474 kts 181°
2026-04-20 15:03 36.90168 114.90273 38209 ft 474 kts 181°
2026-04-20 15:04 36.83679 114.91769 38210 ft 474 kts 181°
2026-04-20 15:04 36.77182 114.93266 38212 ft 473 kts 181°
2026-04-20 15:05 36.70689 114.94759 38215 ft 472 kts 181°
2026-04-20 15:05 36.64232 114.96240 38217 ft 471 kts 181°
2026-04-20 15:06 36.57766 114.97722 38219 ft 471 kts 181°
2026-04-20 15:06 36.51279 114.99205 38221 ft 471 kts 181°
2026-04-20 15:07 36.44811 115.00680 38223 ft 474 kts 180°
2026-04-20 15:07 36.38292 115.02162 38224 ft 475 kts 181°
2026-04-20 15:07 36.35037 115.02551 38227 ft 462 kts 190°
2026-04-20 15:08 36.31883 115.02392 38233 ft 453 kts 195°
2026-04-20 15:08 36.25603 115.01756 38233 ft 453 kts 195°
2026-04-20 15:09 36.19333 115.01112 38236 ft 453 kts 195°
2026-04-20 15:09 36.13050 115.00468 38238 ft 453 kts 195°
2026-04-20 15:10 36.06783 114.99828 38241 ft 453 kts 195°
2026-04-20 15:10 36.00493 114.99187 38243 ft 453 kts 195°
2026-04-20 15:11 35.94223 114.98550 38246 ft 453 kts 195°
2026-04-20 15:11 35.87917 114.97908 38247 ft 453 kts 195°
2026-04-20 15:12 35.81661 114.97274 38234 ft 451 kts 195°
2026-04-20 15:12 35.75416 114.96642 38236 ft 450 kts 195°
2026-04-20 15:13 35.69160 114.96009 38260 ft 449 kts 195°
2026-04-20 15:13 35.62996 114.95387 38263 ft 448 kts 195°
2026-04-20 15:14 35.56739 114.94756 38259 ft 448 kts 195°
2026-04-20 15:14 35.50510 114.94129 38260 ft 448 kts 195°
2026-04-20 15:15 35.44295 114.93504 38262 ft 448 kts 195°
2026-04-20 15:15 35.38096 114.92883 38263 ft 447 kts 195°
2026-04-20 15:16 35.31878 114.92261 38265 ft 446 kts 195°
2026-04-20 15:16 35.25699 114.91643 38266 ft 445 kts 195°
2026-04-20 15:17 35.19514 114.91025 38266 ft 445 kts 195°
2026-04-20 15:17 35.13312 114.90407 38266 ft 444 kts 195°
2026-04-20 15:18 35.07174 114.89796 38266 ft 443 kts 195°
2026-04-20 15:18 35.01026 114.89185 38266 ft 443 kts 195°
2026-04-20 15:19 34.94869 114.88574 38266 ft 442 kts 195°
2026-04-20 15:19 34.88751 114.87968 38268 ft 440 kts 195°
2026-04-20 15:20 34.82645 114.87363 38271 ft 440 kts 195°
2026-04-20 15:20 34.76537 114.86760 38272 ft 439 kts 195°
2026-04-20 15:21 34.70454 114.86159 38272 ft 439 kts 194°
2026-04-20 15:21 34.64381 114.85561 38273 ft 438 kts 194°
2026-04-20 15:22 34.58300 114.84963 38274 ft 438 kts 194°
2026-04-20 15:22 34.52203 114.84364 38276 ft 437 kts 194°
2026-04-20 15:23 34.46174 114.83773 38277 ft 436 kts 194°
2026-04-20 15:23 34.40111 114.83179 38278 ft 435 kts 194°
2026-04-20 15:24 34.34093 114.82591 38277 ft 434 kts 194°
2026-04-20 15:24 34.28039 114.81998 38276 ft 433 kts 194°
2026-04-20 15:25 34.22049 114.81416 38276 ft 433 kts 194°
2026-04-20 15:25 34.16021 114.80829 38275 ft 432 kts 194°
2026-04-20 15:26 34.10042 114.80253 38274 ft 432 kts 194°
2026-04-20 15:26 34.04035 114.79675 38273 ft 432 kts 194°
2026-04-20 15:27 33.98041 114.79099 38270 ft 432 kts 194°
2026-04-20 15:27 33.92011 114.78513 38269 ft 433 kts 194°
2026-04-20 15:28 33.86016 114.77941 38264 ft 430 kts 194°
2026-04-20 15:28 33.80044 114.77340 38265 ft 428 kts 194°
2026-04-20 15:29 33.74087 114.76738 38280 ft 429 kts 194°
2026-04-20 15:29 33.68123 114.76173 38277 ft 429 kts 193°
2026-04-20 15:30 33.62154 114.75626 38274 ft 429 kts 194°
2026-04-20 15:30 33.56232 114.75053 38270 ft 429 kts 194°
2026-04-20 15:31 33.50271 114.74430 38268 ft 429 kts 194°
2026-04-20 15:31 33.44307 114.73834 38263 ft 430 kts 193°
2026-04-20 15:32 33.38342 114.73261 38262 ft 430 kts 193°
2026-04-20 15:32 33.32337 114.72684 38261 ft 430 kts 193°
2026-04-20 15:33 33.26388 114.72113 38260 ft 430 kts 193°
2026-04-20 15:33 33.20432 114.71540 38258 ft 429 kts 193°
2026-04-20 15:34 33.14434 114.70950 38255 ft 429 kts 193°
2026-04-20 15:34 33.08474 114.70361 38253 ft 430 kts 193°
2026-04-20 15:35 33.02500 114.69772 38251 ft 429 kts 193°
2026-04-20 15:35 32.96574 114.69188 38248 ft 429 kts 193°
2026-04-20 15:36 32.90623 114.68603 38245 ft 430 kts 193°
2026-04-20 15:36 32.84621 114.68023 38249 ft 430 kts 193°
2026-04-20 15:37 32.78670 114.67462 38247 ft 431 kts 193°
2026-04-20 15:37 32.72691 114.66898 38244 ft 431 kts 193°
2026-04-20 15:38 32.66674 114.66331 38235 ft 431 kts 193°
2026-04-20 15:38 32.60698 114.65768 38225 ft 431 kts 193°
2026-04-20 15:39 32.54694 114.65204 38217 ft 432 kts 193°
2026-04-20 15:39 32.48682 114.64639 38212 ft 432 kts 192°
2026-04-20 15:40 32.42664 114.64075 38209 ft 433 kts 192°
2026-04-20 15:40 32.36626 114.63506 38206 ft 433 kts 192°
2026-04-20 15:41 32.30584 114.62917 38203 ft 433 kts 192°
2026-04-20 15:41 32.24548 114.62328 38200 ft 434 kts 192°
2026-04-20 15:42 32.18526 114.61742 38197 ft 434 kts 192°
2026-04-20 15:42 32.12474 114.61154 38194 ft 434 kts 192°
2026-04-20 15:43 32.06471 114.60571 38191 ft 434 kts 192°
2026-04-20 15:43 32.00417 114.59985 38188 ft 434 kts 192°
2026-04-20 15:44 31.94377 114.59401 38186 ft 435 kts 192°
2026-04-20 15:44 31.88351 114.58820 38187 ft 435 kts 192°
2026-04-20 15:45 31.82756 114.58279 38189 ft 435 kts 192°
2026-04-20 15:45 31.76675 114.57694 38194 ft 435 kts 192°
2026-04-20 15:46 31.70628 114.57111 38199 ft 435 kts 192°
2026-04-20 15:46 31.64559 114.56529 38195 ft 435 kts 192°
2026-04-20 15:47 31.58526 114.55952 38189 ft 435 kts 192°
2026-04-20 15:47 31.52456 114.55371 38186 ft 435 kts 192°
2026-04-20 15:48 31.46392 114.54793 38184 ft 435 kts 192°
2026-04-20 15:48 31.40363 114.54218 38182 ft 435 kts 192°
2026-04-20 15:49 31.34343 114.53645 38180 ft 434 kts 192°
2026-04-20 15:49 31.28310 114.53071 38177 ft 434 kts 192°
2026-04-20 15:50 31.22520 114.51545 38176 ft 422 kts 207°
2026-04-20 15:50 31.17207 114.48698 38175 ft 419 kts 211°
2026-04-20 15:51 31.11945 114.45767 38172 ft 418 kts 211°
2026-04-20 15:51 31.06673 114.42840 38170 ft 418 kts 211°
2026-04-20 15:52 31.01395 114.39917 38168 ft 418 kts 211°
2026-04-20 15:52 30.96137 114.37009 38167 ft 418 kts 210°
2026-04-20 15:53 30.88155 114.32697 38184 ft 420 kts 209°
2026-04-20 15:53 30.82841 114.29923 38187 ft 419 kts 209°
2026-04-20 15:54 30.77510 114.27084 38186 ft 418 kts 210°
2026-04-20 15:54 30.72253 114.24220 38182 ft 418 kts 210°
2026-04-20 15:55 30.66982 114.21354 38181 ft 418 kts 209°
2026-04-20 15:55 30.61675 114.18475 38180 ft 418 kts 209°
2026-04-20 15:56 30.56377 114.15603 38180 ft 418 kts 209°
2026-04-20 15:56 30.51097 114.12747 38179 ft 418 kts 209°
2026-04-20 15:57 30.45825 114.09900 38178 ft 419 kts 209°
2026-04-20 15:57 30.40529 114.07043 38178 ft 419 kts 209°
2026-04-20 15:58 30.35227 114.04185 38177 ft 418 kts 209°
2026-04-20 15:58 30.29948 114.01345 38176 ft 418 kts 209°
2026-04-20 15:59 30.24664 113.98505 38175 ft 418 kts 209°
2026-04-20 15:59 30.19409 113.95689 38174 ft 418 kts 209°
2026-04-20 16:00 30.14138 113.92868 38172 ft 417 kts 209°
2026-04-20 16:00 30.08871 113.90053 38172 ft 417 kts 209°
2026-04-20 16:01 30.03594 113.87236 38171 ft 417 kts 209°
2026-04-20 16:01 29.98290 113.84408 38169 ft 417 kts 209°
2026-04-20 16:02 29.93010 113.81596 38167 ft 417 kts 209°
2026-04-20 16:02 29.87621 113.79064 38168 ft 422 kts 200°
2026-04-20 16:03 29.81729 113.78072 38171 ft 431 kts 189°
2026-04-20 16:03 29.75722 113.77661 38168 ft 431 kts 189°
2026-04-20 16:04 29.69719 113.77250 38166 ft 431 kts 189°
2026-04-20 16:04 29.63713 113.76836 38164 ft 431 kts 189°
2026-04-20 16:05 29.57721 113.76421 38165 ft 432 kts 189°
2026-04-20 16:05 29.51703 113.76004 38171 ft 432 kts 189°
2026-04-20 16:06 29.45704 113.75588 38153 ft 432 kts 189°
2026-04-20 16:06 29.39671 113.75171 38162 ft 433 kts 189°
2026-04-20 16:07 29.33608 113.74751 38155 ft 433 kts 189°
2026-04-20 16:07 29.27616 113.74338 38147 ft 433 kts 189°
2026-04-20 16:08 29.21544 113.73975 38135 ft 436 kts 185°
2026-04-20 16:08 29.15458 113.74197 38135 ft 437 kts 184°
2026-04-20 16:09 29.09356 113.74421 38132 ft 437 kts 184°
2026-04-20 16:09 29.03203 113.74623 38131 ft 437 kts 184°
2026-04-20 16:10 28.97131 113.74812 38129 ft 437 kts 184°
2026-04-20 16:10 28.91043 113.74994 38128 ft 437 kts 184°
2026-04-20 16:11 28.84931 113.75174 38136 ft 438 kts 183°
2026-04-20 16:11 28.78833 113.75352 38138 ft 438 kts 183°
2026-04-20 16:12 28.72693 113.75423 38138 ft 435 kts 187°
2026-04-20 16:12 28.66654 113.74985 38139 ft 436 kts 188°
2026-04-20 16:13 28.60594 113.74535 38141 ft 436 kts 188°
2026-04-20 16:13 28.54495 113.74085 38143 ft 436 kts 188°
2026-04-20 16:14 28.48415 113.73638 38146 ft 436 kts 188°
2026-04-20 16:14 28.42360 113.73194 38140 ft 436 kts 187°
2026-04-20 16:15 28.36256 113.72747 38134 ft 437 kts 187°
2026-04-20 16:15 28.30175 113.72303 38128 ft 437 kts 187°
2026-04-20 16:16 28.24054 113.71861 38123 ft 437 kts 187°
2026-04-20 16:16 28.17977 113.71418 38123 ft 437 kts 187°
2026-04-20 16:17 28.11911 113.70972 38121 ft 438 kts 188°
2026-04-20 16:17 28.05807 113.70437 38121 ft 437 kts 188°
2026-04-20 16:18 27.99737 113.69891 38121 ft 437 kts 188°
2026-04-20 16:18 27.93651 113.69344 38119 ft 438 kts 188°
2026-04-20 16:19 27.87568 113.68800 38125 ft 439 kts 188°
2026-04-20 16:19 27.81455 113.68253 38128 ft 439 kts 188°
2026-04-20 16:20 27.75321 113.67705 38128 ft 439 kts 188°
2026-04-20 16:20 27.69205 113.67161 38125 ft 440 kts 188°
2026-04-20 16:21 27.63098 113.66627 38120 ft 441 kts 186°
2026-04-20 16:21 27.56937 113.66495 38123 ft 442 kts 184°
2026-04-20 16:22 27.50772 113.66389 38122 ft 442 kts 185°
2026-04-20 16:22 27.44566 113.66267 38121 ft 443 kts 185°
2026-04-20 16:23 27.38413 113.66139 38120 ft 444 kts 185°
2026-04-20 16:23 27.32171 113.66005 38119 ft 445 kts 185°
2026-04-20 16:24 27.25949 113.65869 38118 ft 446 kts 185°
2026-04-20 16:24 27.19739 113.65771 38113 ft 449 kts 181°
2026-04-20 16:25 27.13515 113.66988 38118 ft 457 kts 169°
2026-04-20 16:25 27.07330 113.68820 38117 ft 458 kts 169°
2026-04-20 16:26 27.01150 113.70651 38116 ft 460 kts 169°
2026-04-20 16:26 26.94951 113.72482 38116 ft 461 kts 169°
2026-04-20 16:27 26.88718 113.74320 38125 ft 462 kts 169°
2026-04-20 16:27 26.82518 113.76144 38138 ft 463 kts 169°
2026-04-20 16:28 26.76269 113.77982 38129 ft 465 kts 169°
2026-04-20 16:28 26.69987 113.79886 38110 ft 466 kts 168°
2026-04-20 16:29 26.63734 113.81857 38133 ft 468 kts 168°
2026-04-20 16:29 26.57438 113.83833 38147 ft 470 kts 168°
2026-04-20 16:30 26.51112 113.85815 38150 ft 471 kts 168°
2026-04-20 16:30 26.44741 113.87714 38096 ft 472 kts 169°
2026-04-20 16:31 26.38382 113.89543 37886 ft 473 kts 169°
2026-04-20 16:31 26.35151 113.90474 37684 ft 474 kts 169°
2026-04-20 16:31 26.31972 113.91389 37448 ft 474 kts 169°
2026-04-20 16:32 26.28779 113.92310 37218 ft 473 kts 169°
2026-04-20 16:32 26.25562 113.93238 37092 ft 472 kts 169°
2026-04-20 16:32 26.22367 113.94158 36859 ft 477 kts 169°
2026-04-20 16:32 26.19123 113.95092 36566 ft 477 kts 169°
2026-04-20 16:33 26.15928 113.96013 36208 ft 477 kts 169°
2026-04-20 16:33 26.12715 113.96938 35836 ft 476 kts 169°
2026-04-20 16:33 26.09494 113.97865 35435 ft 476 kts 169°
2026-04-20 16:33 26.06256 113.98796 35024 ft 478 kts 168°
2026-04-20 16:34 26.03038 113.99721 34617 ft 479 kts 168°
2026-04-20 16:34 25.99781 114.00665 34207 ft 480 kts 168°
2026-04-20 16:34 25.96527 114.01633 33792 ft 481 kts 168°
2026-04-20 16:34 25.93309 114.02593 33382 ft 482 kts 168°
2026-04-20 16:35 25.90028 114.03569 32964 ft 483 kts 168°
2026-04-20 16:35 25.86776 114.04536 32554 ft 484 kts 168°
2026-04-20 16:35 25.83518 114.05505 32132 ft 484 kts 167°
2026-04-20 16:35 25.80257 114.06473 31710 ft 485 kts 167°
2026-04-20 16:36 25.76948 114.07455 31283 ft 486 kts 167°
2026-04-20 16:36 25.73680 114.08424 30863 ft 486 kts 167°
2026-04-20 16:36 25.70388 114.09400 30439 ft 487 kts 167°
2026-04-20 16:36 25.67125 114.10366 30019 ft 487 kts 167°
2026-04-20 16:37 25.63862 114.11332 29601 ft 483 kts 167°
2026-04-20 16:37 25.60602 114.12297 29182 ft 478 kts 167°
2026-04-20 16:37 25.57396 114.13245 28769 ft 474 kts 168°
2026-04-20 16:37 25.54250 114.14174 28383 ft 470 kts 168°
2026-04-20 16:38 25.51056 114.15117 27990 ft 467 kts 168°
2026-04-20 16:38 25.47945 114.16035 27605 ft 464 kts 168°
2026-04-20 16:38 25.44807 114.16960 27221 ft 460 kts 168°
2026-04-20 16:38 25.41721 114.17870 26842 ft 458 kts 168°
2026-04-20 16:39 25.38645 114.18776 26463 ft 455 kts 168°
2026-04-20 16:39 25.35605 114.19670 26087 ft 452 kts 168°
2026-04-20 16:39 25.32552 114.20569 25707 ft 450 kts 168°
2026-04-20 16:39 25.29533 114.21456 25327 ft 448 kts 168°
2026-04-20 16:40 25.26533 114.22338 24950 ft 445 kts 168°
2026-04-20 16:40 25.23523 114.23222 24571 ft 443 kts 168°
2026-04-20 16:40 25.20554 114.24094 24193 ft 441 kts 168°
2026-04-20 16:40 25.17583 114.24966 23815 ft 439 kts 168°
2026-04-20 16:41 25.14641 114.25829 23440 ft 437 kts 168°
2026-04-20 16:41 25.11671 114.26505 23062 ft 431 kts 176°
2026-04-20 16:41 25.08689 114.26717 22686 ft 426 kts 184°
2026-04-20 16:41 25.05731 114.26472 22308 ft 420 kts 192°
2026-04-20 16:42 25.02871 114.25894 21940 ft 417 kts 194°
2026-04-20 16:42 25.00043 114.25278 21575 ft 415 kts 194°
2026-04-20 16:42 24.97177 114.24651 21216 ft 413 kts 194°
2026-04-20 16:42 24.94358 114.24036 20863 ft 411 kts 194°
2026-04-20 16:43 24.91574 114.23429 20510 ft 408 kts 194°
2026-04-20 16:43 24.88780 114.22820 20156 ft 406 kts 194°
2026-04-20 16:43 24.86007 114.22216 19851 ft 404 kts 194°
2026-04-20 16:43 24.83393 114.21648 19566 ft 403 kts 194°
2026-04-20 16:44 24.80606 114.21041 19266 ft 402 kts 194°
2026-04-20 16:44 24.77846 114.20441 18971 ft 401 kts 194°
2026-04-20 16:44 24.75071 114.19839 18706 ft 399 kts 194°
2026-04-20 16:44 24.72327 114.19244 18339 ft 396 kts 194°
2026-04-20 16:45 24.69610 114.18655 17967 ft 393 kts 194°
2026-04-20 16:45 24.67447 114.18185 17667 ft 391 kts 194°
2026-04-20 16:45 24.64740 114.17598 17086 ft 392 kts 194°
2026-04-20 16:45 24.62077 114.17020 16723 ft 391 kts 194°
2026-04-20 16:46 24.59399 114.16441 16355 ft 387 kts 194°
2026-04-20 16:46 24.56745 114.15866 15990 ft 384 kts 194°
2026-04-20 16:46 24.54119 114.15299 15645 ft 382 kts 194°
2026-04-20 16:46 24.51488 114.14729 15291 ft 380 kts 194°
2026-04-20 16:47 24.49023 114.14196 14955 ft 378 kts 194°
2026-04-20 16:47 24.46435 114.13636 14600 ft 376 kts 194°
2026-04-20 16:47 24.43831 114.13075 14238 ft 374 kts 194°
2026-04-20 16:47 24.41286 114.12525 13901 ft 372 kts 194°
2026-04-20 16:48 24.38759 114.11980 13805 ft 360 kts 194°
2026-04-20 16:48 24.36360 114.11327 13794 ft 343 kts 200°
2026-04-20 16:48 24.34119 114.10426 13796 ft 336 kts 206°
2026-04-20 16:48 24.32009 114.09275 13795 ft 334 kts 212°
2026-04-20 16:49 24.30034 114.07963 13794 ft 333 kts 214°
2026-04-20 16:49 24.28032 114.06606 13789 ft 333 kts 213°
2026-04-20 16:49 24.26064 114.05244 13788 ft 334 kts 214°
2026-04-20 16:49 24.24102 114.03863 13780 ft 334 kts 214°
2026-04-20 16:50 24.22121 114.02477 13778 ft 334 kts 214°
2026-04-20 16:50 24.20163 114.01113 13780 ft 334 kts 214°
2026-04-20 16:50 24.18184 113.99736 13783 ft 334 kts 214°
2026-04-20 16:50 24.16189 113.98352 13788 ft 334 kts 214°
2026-04-20 16:51 24.14225 113.96990 13793 ft 335 kts 214°
2026-04-20 16:51 24.12216 113.95597 13796 ft 335 kts 215°
2026-04-20 16:51 24.10332 113.94115 13802 ft 334 kts 220°
2026-04-20 16:51 24.08572 113.92434 13809 ft 333 kts 224°
2026-04-20 16:52 24.06859 113.90736 13804 ft 333 kts 224°
2026-04-20 16:52 24.06450 113.90331 13803 ft 333 kts 224°
2026-04-20 16:53 24.05870 113.89758 13801 ft 333 kts 224°
2026-04-20 16:53 24.04153 113.88065 13799 ft 333 kts 224°
2026-04-20 16:54 24.02430 113.86367 13796 ft 334 kts 224°
2026-04-20 16:54 24.00716 113.84682 13603 ft 331 kts 224°
2026-04-20 16:54 23.99013 113.83009 13377 ft 322 kts 224°
2026-04-20 16:54 23.97365 113.81390 13152 ft 314 kts 224°
2026-04-20 16:55 23.95758 113.79812 12922 ft 307 kts 224°
2026-04-20 16:55 23.94185 113.78268 12689 ft 300 kts 224°
2026-04-20 16:55 23.92648 113.76759 12456 ft 294 kts 224°
2026-04-20 16:55 23.91140 113.75280 12221 ft 288 kts 224°
2026-04-20 16:56 23.89644 113.73811 11981 ft 287 kts 224°
2026-04-20 16:56 23.88154 113.72349 11741 ft 286 kts 223°
2026-04-20 16:56 23.86671 113.70895 11501 ft 286 kts 223°
2026-04-20 16:56 23.85187 113.69441 11263 ft 285 kts 223°
2026-04-20 16:57 23.83720 113.68004 11029 ft 283 kts 223°
2026-04-20 16:57 23.82265 113.66579 10817 ft 281 kts 223°
2026-04-20 16:57 23.80818 113.65163 10776 ft 282 kts 223°
2026-04-20 16:57 23.79373 113.63746 10769 ft 282 kts 223°
2026-04-20 16:58 23.77940 113.62344 10746 ft 283 kts 222°
2026-04-20 16:58 23.76458 113.60896 10762 ft 284 kts 222°
2026-04-20 16:58 23.74985 113.59456 10762 ft 284 kts 222°
2026-04-20 16:58 23.73497 113.58001 10760 ft 284 kts 222°
2026-04-20 16:59 23.72024 113.56562 10758 ft 284 kts 222°
2026-04-20 16:59 23.70544 113.55116 10756 ft 284 kts 222°
2026-04-20 16:59 23.69061 113.53668 10755 ft 284 kts 222°
2026-04-20 16:59 23.67588 113.52231 10753 ft 284 kts 222°
2026-04-20 17:00 23.64631 113.49345 10749 ft 284 kts 222°
2026-04-20 17:00 23.63168 113.47918 10749 ft 284 kts 222°
2026-04-20 17:00 23.61672 113.46460 10748 ft 284 kts 222°
2026-04-20 17:01 23.60269 113.45094 10748 ft 284 kts 222°
2026-04-20 17:01 23.58817 113.43678 10747 ft 284 kts 223°
2026-04-20 17:01 23.57352 113.42248 10747 ft 284 kts 223°
2026-04-20 17:01 23.55872 113.40831 10743 ft 278 kts 220°
2026-04-20 17:02 23.54330 113.39574 10743 ft 274 kts 215°
2026-04-20 17:02 23.52703 113.38492 10744 ft 273 kts 210°
2026-04-20 17:02 23.50988 113.37579 10744 ft 274 kts 205°
2026-04-20 17:02 23.49214 113.36843 10741 ft 274 kts 201°
2026-04-20 17:03 23.47380 113.36156 10739 ft 274 kts 201°
2026-04-20 17:03 23.45576 113.35477 10740 ft 274 kts 201°
2026-04-20 17:03 23.43761 113.34788 10741 ft 274 kts 201°
2026-04-20 17:03 23.41967 113.34104 10743 ft 274 kts 201°
2026-04-20 17:04 23.40131 113.33408 10744 ft 274 kts 201°
2026-04-20 17:04 23.38332 113.32722 10744 ft 274 kts 201°
2026-04-20 17:04 23.36518 113.32031 10744 ft 274 kts 201°
2026-04-20 17:04 23.34696 113.31338 10746 ft 274 kts 201°
2026-04-20 17:05 23.32898 113.30655 10748 ft 274 kts 201°
2026-04-20 17:05 23.31070 113.29958 10748 ft 274 kts 201°
2026-04-20 17:05 23.29265 113.29272 10748 ft 274 kts 201°
2026-04-20 17:05 23.27447 113.28582 10748 ft 274 kts 201°
2026-04-20 17:06 23.25651 113.27901 10747 ft 274 kts 201°
2026-04-20 17:06 23.23836 113.27212 10747 ft 275 kts 201°
2026-04-20 17:06 23.22036 113.26529 10746 ft 275 kts 201°
2026-04-20 17:06 23.20218 113.25839 10746 ft 275 kts 201°
2026-04-20 17:07 23.18407 113.25153 10745 ft 275 kts 201°
2026-04-20 17:07 23.16581 113.24461 10745 ft 275 kts 201°
2026-04-20 17:07 23.14777 113.23776 10744 ft 275 kts 201°
2026-04-20 17:07 23.12925 113.23183 10745 ft 276 kts 194°
2026-04-20 17:08 23.11012 113.22845 10745 ft 277 kts 187°
2026-04-20 17:08 23.09083 113.22768 10745 ft 278 kts 180°
2026-04-20 17:08 23.07129 113.22959 10745 ft 280 kts 173°
2026-04-20 17:08 23.05218 113.23418 10745 ft 282 kts 166°
2026-04-20 17:09 23.03370 113.24141 10746 ft 284 kts 159°
2026-04-20 17:09 23.01582 113.25136 10746 ft 286 kts 152°
2026-04-20 17:09 22.99943 113.26359 10746 ft 288 kts 144°
2026-04-20 17:09 22.98432 113.27834 10746 ft 290 kts 136°
2026-04-20 17:10 22.97127 113.29494 10747 ft 292 kts 129°
2026-04-20 17:10 22.96022 113.31345 10747 ft 293 kts 121°
2026-04-20 17:10 22.95132 113.33371 10750 ft 294 kts 116°
2026-04-20 17:10 22.94292 113.35388 10751 ft 294 kts 117°
2026-04-20 17:11 22.93390 113.37382 10591 ft 294 kts 119°
2026-04-20 17:11 22.92462 113.39350 10359 ft 289 kts 119°
2026-04-20 17:11 22.91528 113.41264 10124 ft 284 kts 123°
2026-04-20 17:11 22.90410 113.42993 9888 ft 277 kts 132°
2026-04-20 17:12 22.89081 113.44484 9645 ft 271 kts 141°
2026-04-20 17:12 22.87581 113.45718 9402 ft 265 kts 150°
2026-04-20 17:12 22.85966 113.46679 9160 ft 260 kts 158°
2026-04-20 17:12 22.84291 113.47353 8920 ft 254 kts 166°
2026-04-20 17:13 22.82566 113.47753 8678 ft 250 kts 174°
2026-04-20 17:13 22.80850 113.47885 8438 ft 245 kts 182°
2026-04-20 17:13 22.79147 113.47767 8197 ft 242 kts 187°
2026-04-20 17:13 22.77463 113.47571 7959 ft 239 kts 186°
2026-04-20 17:14 22.75831 113.47421 7726 ft 237 kts 185°
2026-04-20 17:14 22.74191 113.47295 7491 ft 234 kts 185°
2026-04-20 17:14 22.72547 113.47173 7251 ft 232 kts 185°
2026-04-20 17:14 22.70931 113.47055 7014 ft 230 kts 185°
2026-04-20 17:15 22.69356 113.46939 6781 ft 228 kts 185°
2026-04-20 17:15 22.67771 113.46821 6546 ft 227 kts 185°
2026-04-20 17:15 22.66178 113.46702 6306 ft 225 kts 185°
2026-04-20 17:15 22.64632 113.46750 6066 ft 224 kts 170°
2026-04-20 17:16 22.63156 113.47333 5820 ft 225 kts 152°
2026-04-20 17:16 22.61938 113.48410 5574 ft 227 kts 133°
2026-04-20 17:16 22.61108 113.49869 5328 ft 230 kts 114°
2026-04-20 17:16 22.60766 113.51558 5082 ft 233 kts 96°
2026-04-20 17:17 22.60844 113.53316 4830 ft 235 kts 79°
2026-04-20 17:17 22.61511 113.54921 4576 ft 237 kts 55°
2026-04-20 17:17 22.62706 113.56131 4323 ft 238 kts 32°
2026-04-20 17:17 22.64255 113.56754 4065 ft 237 kts
2026-04-20 17:18 22.65910 113.56821 3893 ft 230 kts 359°
2026-04-20 17:18 22.67508 113.56832 3877 ft 227 kts
2026-04-20 17:18 22.69081 113.56865 3871 ft 228 kts
2026-04-20 17:18 22.70683 113.56913 3871 ft 228 kts
2026-04-20 17:19 22.72270 113.56967 3874 ft 228 kts
2026-04-20 17:19 22.73876 113.57019 3873 ft 228 kts
2026-04-20 17:19 22.75450 113.57069 3869 ft 223 kts
2026-04-20 17:19 22.76978 113.57113 3870 ft 217 kts
2026-04-20 17:20 22.78492 113.57158 3870 ft 215 kts
2026-04-20 17:20 22.79965 113.57201 3837 ft 206 kts
2026-04-20 17:20 22.81390 113.57281 3607 ft 205 kts 11°
2026-04-20 17:20 22.82725 113.57799 3353 ft 202 kts 34°
2026-04-20 17:21 22.83571 113.58555 3287 ft 197 kts 52°
2026-04-20 17:21 22.84320 113.59804 3276 ft 198 kts 64°
2026-04-20 17:21 22.84971 113.61125 3274 ft 197 kts 65°
2026-04-20 17:21 22.85368 113.62520 3257 ft 192 kts 95°
2026-04-20 17:22 22.84963 113.63863 3132 ft 187 kts 124°
2026-04-20 17:22 22.84252 113.65035 2988 ft 186 kts 127°
2026-04-20 17:22 22.83521 113.66200 2810 ft 185 kts 127°
2026-04-20 17:22 22.82791 113.67368 2621 ft 183 kts 127°
2026-04-20 17:23 22.82079 113.68499 2433 ft 181 kts 127°
2026-04-20 17:23 22.81374 113.69621 2286 ft 172 kts 127°
2026-04-20 17:23 22.80727 113.70654 2267 ft 161 kts 127°
2026-04-20 17:23 22.80106 113.71665 2273 ft 159 kts 125°
2026-04-20 17:24 22.79414 113.72595 2268 ft 157 kts 144°
2026-04-20 17:24 22.78465 113.73183 2277 ft 156 kts 155°
2026-04-20 17:24 22.77473 113.73695 2273 ft 157 kts 155°
2026-04-20 17:24 22.76495 113.74223 2272 ft 155 kts 154°
2026-04-20 17:25 22.75523 113.74755 2202 ft 160 kts 154°
2026-04-20 17:25 22.74533 113.75295 1990 ft 153 kts 155°
2026-04-20 17:25 22.73608 113.75794 1812 ft 143 kts 154°
2026-04-20 17:25 22.72724 113.76276 1633 ft 140 kts 154°
2026-04-20 17:26 22.71857 113.76749 1448 ft 139 kts 154°
2026-04-20 17:26 22.70986 113.77222 1269 ft 139 kts 154°
2026-04-20 17:26 22.70117 113.77697 1081 ft 139 kts 154°
2026-04-20 17:26 22.69253 113.78159 893 ft 138 kts 155°
2026-04-20 17:27 22.68381 113.78622 699 ft 138 kts 154°
2026-04-20 17:27 22.67529 113.79085 519 ft 138 kts 154°
2026-04-20 17:27 22.66652 113.79561 347 ft 139 kts 153°
2026-04-20 17:27 22.65791 113.80041 164 ft 138 kts 153°
2026-04-20 17:28 22.64935 113.80513 29 ft 134 kts 153°
2026-04-20 17:28 22.64194 113.80918 27 ft 104 kts 153°
2026-04-20 17:28 22.63703 113.81188 27 ft 46 kts 153°
2026-04-20 17:28 22.63495 113.81253 27 ft 26 kts 174°
2026-04-20 17:29 22.63352 113.81245 27 ft 11 kts 198°
2026-04-20 17:29 22.63301 113.81177 27 ft 11 kts 244°
2026-04-20 17:29 22.63290 113.81098 27 ft 11 kts 304°
2026-04-20 17:29 22.63355 113.81053 27 ft 11 kts 334°
2026-04-20 17:30 22.63428 113.81014 27 ft 11 kts 333°
2026-04-20 17:30 22.63501 113.80973 27 ft 11 kts 332°
2026-04-20 17:30 22.63576 113.80931 27 ft 12 kts 333°
2026-04-20 17:30 22.63650 113.80890 27 ft 12 kts 333°
2026-04-20 17:31 22.63725 113.80849 27 ft 11 kts 333°
2026-04-20 17:31 22.63796 113.80810 27 ft 11 kts 333°
2026-04-20 17:31 22.63873 113.80769 27 ft 13 kts 333°
2026-04-20 17:31 22.63968 113.80717 27 ft 16 kts 333°
2026-04-20 17:32 22.64013 113.80657 27 ft 5 kts 248°
2026-04-20 17:32 22.63983 113.80596 27 ft 13 kts 242°
2026-04-20 17:32 22.63926 113.80478 27 ft 21 kts 243°
2026-04-20 17:32 22.63848 113.80314 27 ft 24 kts 243°
2026-04-20 17:33 22.63773 113.80154 27 ft 23 kts 243°
2026-04-20 17:33 22.63702 113.80005 27 ft 22 kts 243°
2026-04-20 17:33 22.63638 113.79869 27 ft 15 kts 243°
2026-04-20 17:33 22.63563 113.79842 27 ft 12 kts 153°
2026-04-20 17:34 22.63483 113.79886 27 ft 12 kts 153°
2026-04-20 17:34 22.63405 113.79929 27 ft 12 kts 153°
2026-04-20 17:34 22.63329 113.79971 27 ft 12 kts 153°
2026-04-20 17:34 22.63239 113.80020 27 ft 16 kts 153°
2026-04-20 17:35 22.63130 113.80080 27 ft 19 kts 153°
2026-04-20 17:35 22.63003 113.80149 27 ft 21 kts 153°
2026-04-20 17:35 22.62907 113.80206 27 ft 11 kts 134°
2026-04-20 17:35 22.62915 113.80280 27 ft 11 kts 62°
2026-04-20 17:36 22.62952 113.80354 27 ft 11 kts 62°
2026-04-20 17:36 22.62987 113.80428 27 ft 11 kts 63°
2026-04-20 17:36 22.62987 113.80487 27 ft 7 kts 131°
2026-04-20 17:36 22.62946 113.80520 27 ft 6 kts 126°
2026-04-20 17:37 22.62931 113.80570 27 ft 7 kts 101°
2026-04-20 17:37 22.62925 113.80600 27 ft 0 kts 101°
2026-04-20 17:37 22.62924 113.80605 27 ft 0 kts 101°